EW2270 Weather Reports


time (UTC)temp
F
wind
direction
speed
knots
gust
knots
rain 1hr
in
rain 24hr
in
rain mn
in
humidity
%
barometer
mb
20260509053013 58 205 4.3 9.6 0.00 0.00 0.00 51 1018.2
20260509051506 59 174 7.0 11.3 0.00 0.00 0.00 48 1018.1
20260509050006 59 187 5.2 11.3 0.00 0.00 0.00 48 1017.9
20260509044503 60 244 5.2 10.4 0.00 0.00 0.00 45 1017.7
20260509043001 60 191 6.1 13.0 0.00 0.00 0.00 44 1017.5
20260509041600 60 240 2.6 11.3 0.00 0.00 0.00 44 1017.3
20260509040107 61 238 3.5 8.7 0.00 0.00 0.00 44 1017.2
20260509034556 61 207 6.1 8.7 0.00 0.00 0.00 43 1016.8
20260509033055 61 193 3.5 8.7 0.00 0.00 0.00 43 1016.7
20260509031552 63 193 6.1 10.4 0.00 0.00 0.00 40 1016.2
20260509030050 64 199 6.1 11.3 0.00 0.00 0.00 38 1015.7
20260509024548 66 262 10.4 17.4 0.00 0.00 0.00 35 1015.6
20260509023048 67 239 12.2 20.9 0.00 0.00 0.00 34 1015.4
20260509021547 68 255 11.3 23.5 0.00 0.00 0.00 33 1015.2
20260509020047 69 265 13.0 20.9 0.00 0.00 0.00 32 1015.0
20260509014546 70 245 20.0 26.9 0.00 0.00 0.00 30 1015.0
20260509013058 71 272 13.9 23.5 0.00 0.00 0.00 29 1014.7
20260509011545 71 236 13.0 24.3 0.00 0.00 0.00 26 1014.7
20260509010044 71 255 17.4 24.3 0.00 0.00 0.00 25 1014.8
20260509004607 72 257 17.4 26.9 0.00 0.00 0.00 25 1014.9
20260509003048 72 232 19.1 26.9 0.00 0.00 0.00 25 1015.1
20260509001543 73 271 16.5 26.1 0.00 0.00 0.00 25 1014.9
20260509000042 72 263 16.5 24.3 0.00 0.00 0.00 23 1015.0
20260508234545 72 252 14.8 23.5 0.00 0.00 0.00 21 1014.9
20260508233040 72 250 15.6 23.5 0.00 0.00 0.00 22 1014.9
20260508231539 73 229 16.5 28.7 0.00 0.00 0.00 18 1014.9
20260508230052 73 269 13.0 22.6 0.00 0.00 0.00 22 1014.8
20260508224538 72 254 13.0 21.7 0.00 0.00 0.00 20 1014.8
20260508223036 73 259 15.6 20.9 0.00 0.00 0.00 21 1014.9
20260508221537 72 253 12.2 21.7 0.00 0.00 0.00 24 1014.9
20260508220034 72 249 13.9 20.0 0.00 0.00 0.00 24 1014.8
20260508214534 73 273 14.8 20.0 0.00 0.00 0.00 24 1014.9
20260508213031 72 262 12.2 18.2 0.00 0.00 0.00 26 1014.9
20260508211534 71 285 13.0 19.1 0.00 0.00 0.00 31 1015.0
20260508210035 71 258 14.8 23.5 0.00 0.00 0.00 30 1015.0
20260508204529 72 285 13.9 23.5 0.00 0.00 0.00 34 1014.7
20260508203028 72 288 15.6 20.9 0.00 0.00 0.00 32 1014.7
20260508201527 74 245 9.6 14.8 0.00 0.00 0.00 28 1014.3
20260508200036 73 290 2.6 7.0 0.00 0.00 0.00 32 1014.2
20260508194522 70 259 2.6 6.1 0.00 0.00 0.00 30 1014.4
20260508193022 70 269 3.5 8.7 0.00 0.00 0.00 33 1014.4
20260508191524 70 214 0.9 7.8 0.00 0.00 0.00 31 1014.6
20260508190021 70 241 2.6 13.0 0.00 0.00 0.00 31 1014.9
20260508184528 69 207 2.6 7.0 0.00 0.00 0.00 38 1015.0
20260508183014 67 265 2.6 7.8 0.00 0.00 0.00 41 1015.2
20260508181525 66 273 2.6 7.8 0.00 0.00 0.00 41 1015.5
20260508180011 65 252 5.2 9.6 0.00 0.00 0.00 40 1015.6
20260508174513 65 313 3.5 7.0 0.00 0.00 0.00 42 1015.6
20260508173008 65 251 2.6 9.6 0.00 0.00 0.00 39 1015.7
20260508171506 65 257 6.1 10.4 0.00 0.00 0.00 39 1015.8
20260508170004 64 245 2.6 6.1 0.00 0.00 0.00 43 1015.7
20260508164501 63 250 2.6 4.3 0.00 0.00 0.00 43 1015.6
20260508163100 62 7 1.7 6.1 0.00 0.00 0.00 41 1015.4
20260508161558 62 307 2.6 5.2 0.00 0.00 0.00 46 1015.3
20260508160057 62 326 1.7 3.5 0.00 0.00 0.00 45 1015.3
20260508154557 63 214 2.6 4.3 0.00 0.00 0.00 39 1015.1
20260508153054 62 257 1.7 3.5 0.00 0.00 0.00 41 1015.1
20260508151600 62 218 3.5 6.1 0.00 0.00 0.00 39 1015.1
20260508150059 59 102 0.9 1.7 0.00 0.00 0.00 52 1015.1
20260508144604 57 206 0.9 1.7 0.00 0.00 0.00 49 1015.1
20260508143045 54 217 0.9 1.7 0.00 0.00 0.00 55 1015.1
20260508141551 53 191 0.0 0.9 0.00 0.00 0.00 53 1015.0
20260508140048 50 191 0.0 3.5 0.00 0.00 0.00 55 1015.1
20260508134544 49 107 0.0 0.0 0.00 0.00 0.00 57 1014.9
20260508133105 47 251 0.0 1.7 0.00 0.00 0.00 56 1014.7
20260508131535 47 191 0.9 4.3 0.00 0.00 0.00 58 1014.5
20260508130037 47 141 3.5 6.1 0.00 0.00 0.00 55 1014.4
20260508124534 53 138 1.7 5.2 0.00 0.00 0.00 43 1014.3
20260508123031 56 139 1.7 10.4 0.00 0.00 0.00 35 1014.3
20260508121535 58 199 5.2 10.4 0.00 0.00 0.00 33 1014.3
20260508120027 56 153 5.2 7.8 0.00 0.00 0.00 33 1014.4
20260508114525 55 158 6.1 9.6 0.00 0.00 0.00 34 1014.3
20260508113024 53 143 5.2 8.7 0.00 0.00 0.00 37 1014.2
20260508111522 52 146 5.2 8.7 0.00 0.00 0.00 40 1014.1
20260508110041 48 153 3.5 7.8 0.00 0.00 0.00 45 1014.0
20260508104517 46 143 2.6 6.1 0.00 0.00 0.00 51 1013.8
20260508103016 44 148 1.7 3.5 0.00 0.00 0.00 55 1013.8
20260508101516 45 110 0.0 0.9 0.00 0.00 0.00 53 1013.9
20260508100017 44 110 2.6 3.5 0.00 0.00 0.00 55 1013.7
20260508094509 45 143 0.0 2.6 0.00 0.00 0.00 50 1013.8
20260508093008 45 148 1.7 3.5 0.00 0.00 0.00 48 1013.7
20260508091504 47 242 2.6 3.5 0.00 0.00 0.00 45 1013.6
20260508090004 51 105 0.9 4.3 0.00 0.00 0.00 36 1013.4
20260508084501 48 115 2.6 3.5 0.00 0.00 0.00 40 1013.5
20260508083057 50 136 1.7 4.3 0.00 0.00 0.00 39 1013.5
20260508081602 51 120 1.7 4.3 0.00 0.00 0.00 34 1013.6
20260508080052 55 179 1.7 7.0 0.00 0.00 0.00 30 1013.7
20260508074550 54 139 2.6 6.1 0.00 0.00 0.00 29 1013.7
20260508073053 53 135 2.6 6.1 0.00 0.00 0.00 35 1013.7
20260508071553 56 144 6.1 8.7 0.00 0.00 0.00 31 1013.6
20260508070040 56 139 6.1 7.8 0.00 0.00 0.00 33 1013.5
20260508064540 56 135 3.5 6.1 0.00 0.00 0.00 34 1013.3
20260508063038 54 160 5.2 6.1 0.00 0.00 0.00 40 1013.3
20260508061539 52 181 1.7 6.1 0.00 0.00 0.00 46 1013.2
20260508060037 53 142 4.3 6.1 0.00 0.00 0.00 46 1013.1
20260508054536 53 134 4.3 7.0 0.00 0.00 0.00 46 1013.0